Voltar ao catálogo

STARLINK-4183

AtivoComunicaçõesVLEO
NORAD 53014·PAYLOAD·🇺🇸 United States

Lançado Jul 7, 2022 de Cape Canaveral Space Force Station

Loading…

Próximas Passagens (próximas 24 horas)

TLE

AtualizadoSource: CelesTrak SupGP

Época: Sep 14, 2026, 21:53 UTC

1 53014C 22076AE  26257.91229167 -.00002703  00000+0 -77351-4 0  2576
2 53014  53.1588 304.6277 0001247  85.9301 186.9766 15.35393560    18

Acompanhe STARLINK-4183 em tempo real com AllMySat

Download on the App Store